Regional Weather Roundup
Issued by NWS

Home | Current Version | Previous Version | Graphics & Text | Print | Product List | Glossary On
Versions: 1 2 3 4 5 6 7 8 9 10 11 12 13 14 15 16 17 18 19 20 21 22 23 24 25 26 27 28 29 30 31 32 33 34 35 36 37 38 39 40 41 42 43 44 45 46 47 48 49 50
000
ASUS43 KFSD 282102
RWRSD

WEATHER ROUNDUP FOR SOUTH DAKOTA
NATIONAL WEATHER SERVICE SIOUX FALLS SD
400 PM CDT THU AUG 28 2014

NOTE: "FAIR" INDICATES FEW OR NO CLOUDS BELOW 12,000 FEET WITH NO
SIGNIFICANT WEATHER AND/OR OBSTRUCTIONS TO VISIBILITY.


SDZ001>005-009-010-012>017-282200-
NORTHWEST AND NORTH CENTRAL SOUTH DAKOTA

CITY           SKY/WX    TMP DP  RH WIND       PRES   REMARKS
BUFFALO          N/A     83  49  30 NW8       29.85F
FAITH            N/A     72  62  71 CALM      29.92F
MOBRIDGE       LGT RAIN  70  68  93 E7        29.86F
$$

SDZ012>016-024>037-041>051-057-063-072>074-282200-
SOUTHWEST AND SOUTH CENTRAL SOUTH DAKOTA

CITY           SKY/WX    TMP DP  RH WIND       PRES   REMARKS
RAPID CTY ARPT CLOUDY    76  56  49 CALM      29.96F
PIERRE         CLOUDY    75  68  78 N14       29.85F
CUSTER         CLOUDY    68  53  58 VRB6      30.09F
ELLSWORTH AFB  CLOUDY    75  57  54 S2        29.96F
PHILIP         PTSUNNY   75  62  64 NW10      29.90F
PINE RIDGE     CLOUDY    71  58  63 NW12G22   29.99S
WINNER         MOCLDY    78  67  68 NW8       29.85F
$$

SDZ004>011-016>023-039-040-282200-
NORTHEAST SOUTH DAKOTA

CITY           SKY/WX    TMP DP  RH WIND       PRES   REMARKS
ABERDEEN       CLOUDY    69  68  96 E8        29.88F
WATERTOWN      CLOUDY    67  66  97 E6        29.90F FOG
SISSETON         N/A     67  66  97 S9        29.90F
$$

SDZ017-020-022-023-036>040-048>070-282200-
SOUTHEAST SOUTH DAKOTA

CITY           SKY/WX    TMP DP  RH WIND       PRES   REMARKS
SIOUX FALLS    CLOUDY    73  69  87 SE8       29.88F
HURON          CLOUDY    72  67  84 E8        29.84F
CHAMBERLAIN    CLOUDY    75  67  77 NW6       29.84S
MITCHELL       CLOUDY    75  69  81 E8        29.84F
YANKTON        PTSUNNY   79  72  78 CALM      29.83F
$$

ABBREVIATIONS USED IN REMARKS
   TC - TEMPERATURE IN CELSIUS
  WCI - WIND CHILL INDEX
   HX - HEAT INDEX
  VSB - VISIBILITY



USA.gov is the U.S. government's official web portal to all federal, state and local government web resources and services.